Contratação de serviço de link dedicado de internet de 200Mbps (duzentos megabits por segundo), simétrico (200 Mbps de download e 200 Mbps de upload),
com tecnologia de fibra óptica de link dedicado (não compartilhado), com garantia de banda de 100% (cem por cento) da velocidade contratada, disponibilidade (SLA) mínima de 99,9% (noventa e nove vírgula nove por cento) mensal, tempo de reparo (MTTR) máximo de 4 (quatro) horas, com endereçamento IP de bloco mínimo de 6 (seis) IPs fixos, incluindo serviços de segurança (proteção DDoS, firewall/IPS, notificação de incidentes e que não interfira no atual firewall do CRF/SC), suporte técnico de 24 (vinte e quatro) horas por 7 (sete) dias na semana, com equipamento em comodato, migração assistida e sem interrupção dos serviços, monitoramento proativo e relatórios mensais de disponibilidade/tráfego/incidentes para atender a sede do CRF/SC. 83900969000146-2-000046/2026 | BSB TIC SOLUCOES LTDA | R$ 25.776,00 | 31/08/2027 |
83900969000146-2-000048/2026 | INSTITUTO NEGOCIOS PUBLICOS DO BRASIL - ESTUDOS E PESQUISAS NA ADMNIISTRACAO PUB | R$ 4.100,00 | 27/08/2027 |
83900969000146-2-000047/2026 | S.E. COMERCIO E SERVICOS LTDA | R$ 6.298,00 | 23/08/2027 |
83900969000146-2-000044/2026 | 66.343.359 MARIA LUIZA DA SILVA DIAS | R$ 1.480,00 | 11/08/2027 |
Valor empenhado a A.D.S.M, referente a aquisição de Smart Tv Tcl 32S5K, 32”, Qled, Full Hd 1920X1080, 60Hz, Hdr10, Google Tv, WiFi, Bluetooth, Google Cast, 2 Hdmi, 1 Usb, Bivolt, Controle Remoto Original, Garantia 12 Meses. 83900969000146-2-000045/2026 | 66.343.359 MARIA LUIZA DA SILVA DIAS | R$ 1.196,00 | 11/08/2027 |
83900969000146-2-000043/2026 | LICITA INFORMATICA LTDA | R$ 76,50 | 11/08/2027 |
Valor empenhado a SOLAR MAIS ENERGIA LTDA, referente a aquisição de dois (2) ares condicionados Inverter de 12.000 e 24.000 BTUS, para a sede do CRF/SC:
* 01 Ar condicionado Split, inverter, quente e frio, 12.000 BTU´S. Marca MIDEA: R$ 2.119,00
* 01 Ar condicionado Split, inverter, quente e frio, 24.000 BTU´S. Marca HITACHI: R$ 4.165,00 83900969000146-2-000042/2026 | SOLAR SOLUCOES INTEGRADAS LTDA | R$ 6.284,00 | 10/08/2027 |
83900969000146-2-000039/2026 | LAMP NETWORK LTDA | R$ 19.200,00 | 12/07/2027 |
83900969000146-2-000038/2026 | DEDETIZADORA NAVARINI LTDA | R$ 2.900,00 | 09/07/2027 |
83900969000146-2-000037/2026 | RM ESCADAS LTDA | R$ 890,00 | 07/07/2027 |
83900969000146-2-000036/2026 | LR COMERCIO DE VEICULOS LTDA | R$ 246.222,36 | 28/06/2027 |
83900969000146-2-000035/2026 | ALIANCA DO BRASIL SEGUROS S/A | R$ 9.882,00 | 21/06/2027 |
83900969000146-2-000032/2026 | LAMP NETWORK LTDA | R$ 1.380,00 | 21/06/2027 |
83900969000146-2-000030/2026 | DOCS CONSULTORIA DE RH LTDA | R$ 65,00 | 15/06/2027 |
83900969000146-2-000031/2026 | SINDICATO DOS FARMACEUTICOS NO ESTADO DE SANTA CATARINA - SINDFAR/SC | R$ 8.750,00 | 14/06/2027 |
83900969000146-2-000034/2026 | INDUSTRIA DOS BONECOS ARTESANAIS FERREIRA LTDA | R$ 3.960,00 | 10/06/2027 |
83900969000146-2-000027/2026 | ELETRO VOITENA LTDA | R$ 1.530,25 | 07/06/2027 |
83900969000146-2-000028/2026 | LD ELETRONICOS LTDA | R$ 13.424,00 | 07/06/2027 |
83900969000146-2-000033/2026 | LICIEXPRESS CURSOS E TREINAMENTOS LTDA | R$ 3.299,00 | 07/06/2027 |
Valor empenhado a PMJ COMERCIO DE PLACAS LTDA, para a aquisição de onze medalhas em latão, com banho de ouro industrial, medindo 5,5cm de diâmetro cada uma, gravadas em baixo relevo, acompanhadas de fitas de cetim na cor amarela de 80cm, acondicionadas em estojo de eludo preto com dimensões de 18cm x 14cm cada, e acompanhadas de plaquetas de identificação em latão, com gravação e pintura em baixo relevo, tamanho de 11cm x 2,85cm (cada plaqueta com o nome de um homenageado) para atender as necessidades internas do Conselho Regional de Farmácia do Estado de Santa Catarina. 83900969000146-2-000026/2026 | PMJ COMERCIO DE PLACAS LTDA | R$ 2.530,00 | 04/06/2027 |
83900969000146-2-000029/2026 | FUNDACAO DE ESTUDOS E PESQUISAS SOCIO ECONOMICAS | R$ 1.099,80 | 02/06/2027 |
83900969000146-2-000023/2026 | GALERIA DE MAQUINAS E CAFES LTDA | R$ 15.732,00 | 31/05/2027 |
83900969000146-2-000025/2026 | UNIMED GRANDE FLORIANOPOLIS - COOPERATIVA DE TRABALHO MEDICO | R$ 678.600,36 | 31/05/2027 |
Contratação de espaço físico em ambiente de Coworking, localizado em Joinville/SC, com disponibilização de sala privativa destinada ao funcionamento da Seccional Norte do CRF/SC, com infraestrutura completa e adequada ao desempenho das atividades institucionais, incluindo mobiliário, climatização, internet de alta velocidade, energia elétrica, serviços de recepção, limpeza, segurança, bem como demais facilidades necessárias ao atendimento ao público e ao funcionamento administrativo da unidade, destinada inicialmente à implantação temporária, de 45 a 60 dias, nas condições estabelecidas no Termo de Referência com possibilidade de prorrogação. 83900969000146-2-000022/2026 | LAMP NETWORK LTDA | R$ 3.200,00 | 19/07/2026 |
83900969000146-2-000021/2026 | AGAPE DESIGN LTDA | R$ 3.470,00 | 10/05/2027 |
83900969000146-2-000020/2026 | PORTO SEGURO COMPANHIA DE SEGUROS GERAIS | R$ 29.185,96 | 28/04/2027 |
Apólice de seguro para a vigência de 12 meses da seguinte frota de 14 veículos do CRF/SC:
01 (um) Volkswagen Virtus Exclusive 1.4- Placa TPN-5F96
04 (quatro) Hyundai HB201.6- Placas QJG-9873, QJG-9993, RAJ-6864, RAJ6924
08 (oito) Hyundai HB201.0 Turbo Aut.- Placas RLN-5I80, RLN-5I40, RYM-4D01, RYM-4D31, RYM-4E31, RYM-4E91, RYM-4F21, RYM-5A71
01 (um) Hyundai HB201.0 Turbo - Placas TPP-8186 83900969000146-2-000018/2026 | PORTO SEGURO COMPANHIA DE SEGUROS GERAIS | R$ 29.185,96 | 26/04/2027 |
83900969000146-2-000019/2026 | ENLUAZE ACESSORIOS EM COURO LTDA | R$ 10.560,00 | 15/04/2027 |
Contratação de serviço de licença de uso de programa de folha de pagamento, envolvendo implantações, atualização das funções, em decorrência de mudanças na legislação federal, estadual e municipal, gestão do e-social, configurações, treinamento para uso dos programas, manutenção e suporte técnico com padrões adequados de qualidade, segurança, desempenho, correções de eventuais erros e ainda o fornecimento de novas versões dos sistemas com as respectivas explicações sobre ajustes, sem quaisquer ônus adicionais.
Não estão compreendidos neste contrato serviços como; consulta de legislação, manutenção em redes, suporte de outros sistemas tais como: RAIS, DIEF, GIA, IRPJ, CAGED, DIRF, GFIP etc, bem como possíveis erros causados nos sistemas ora licenciados devido ao mau uso pela CONTRATANTE ou seus funcionários. Tais serviços, se solicitados, poderão ser prestados/executados mediante orçamento prévio e pagamento a parte.
A licença para uso do sistema; DPPH, é para MULTI USUÁRIOS. Ou seja, a licença de uso não limita o usuário a acessar quaisquer dos programas ora cedidos, simultaneamente em todos os computadores interligados em rede. 83900969000146-2-000010/2026 | JD SOFT SISTEMAS LTDA | R$ 7.404,00 | 31/03/2027 |
83900969000146-2-000017/2026 | GVC ENGENHARIA, PROJETO E AVALIACOES LTDA | R$ 6.800,00 | 29/03/2027 |
Serviço de disponibilização de vaga de estacionamento/garagem coberta com acesso 24 horas, para abrigar o automóvel HB20, Placa RAJ6864, utilizado pelo Departamento de Fiscalização do CRF/SC, ou veículo equivalente que venha a substituí-lo, localizado na Rua Enedina D'avila Ferreira, nº510, vaga nº52, CEP 88.310-691, bairro Cordeiros, Município de Itajaí/SC. 83900969000146-2-000016/2026 | 62.278.146 ADEMIR ANTONIO PEREIRA JUNIOR | R$ 4.800,00 | 22/03/2027 |
83900969000146-2-000015/2026 | ELEVACON ELEVADORES CONSERVACAO E MANUTENCAO LTDA | R$ 5.040,00 | 18/03/2027 |
83900969000146-2-000014/2026 | CONSELHO DE SECRETARIAS MUNICIPAIS DE SAUDE DE SANTA CATARINA | R$ 600,00 | 13/03/2026 |
83900969000146-2-000012/2026 | MAYKON WALTER MOREIRA | R$ 620,00 | 03/03/2027 |
83900969000146-2-000011/2026 | MAYKON WALTER MOREIRA | R$ 1.055,00 | 03/03/2027 |
83900969000146-2-000013/2026 | EDSON ROCHA LTDA | R$ 1.990,00 | 03/03/2027 |
83900969000146-2-000009/2026 | EDSON ROCHA LTDA | R$ 17.390,00 | 17/02/2027 |
83900969000146-2-000008/2026 | BIQ BENEFICIOS LTDA | R$ 867.080,68 | 10/02/2027 |
83900969000146-2-000007/2026 | BIQ BENEFICIOS LTDA | R$ 1.290.961,96 | 10/02/2027 |
83900969000146-2-000006/2026 | BIQ BENEFICIOS LTDA | R$ 36.800,00 | 10/02/2027 |
O objeto deste contrato é a contratação de empresa especializada para a administração e o fornecimento de cartões magnéticos com chip para vales-alimentação, vale-refeição e vale-cultura incluindo gerenciamento, recargas mensais, aplicativo móvel para consulta de saldo/extrato e suporte aos usuários, sendo exigida, no mínimo, a aceitação em estabelecimentos bandeirados (Visa, Mastercard, Elo ou similar) e a compatibilidade com aplicativos de delivery em âmbito nacional para os benefícios de vale-alimentação e vale-refeição, para atender aos funcionários do CRF/SC, conforme especificado no Termo de Referência anexo ao Edital do Pregão Eletrônico nº 05/2025.
A quantidade de funcionários/beneficiários indicada no Termo de Referência é meramente estimativa, podendo sofrer acréscimos ou decréscimos ao longo da vigência contratual, conforme necessidade da Administração, sem que disso resulte direito à indenização, reajuste ou compensação de qualquer natureza à contratada, observados os limites legais.
A gestão dos benefícios abrange:
Gestão de Vales-Alimentação: Controle de recargas com registro detalhado e limites configuráveis, em conformidade com o Programa de Alimentação do Trabalhador (PAT), instituído pela Lei nº 6.321/1976, com as atualizações previstas na Lei nº 14.442, de 2 de setembro de 2022, e demais legislação aplicável;
Gestão de Vales-Refeição: Controle de recargas diárias/mensais com registro detalhado, em conformidade com o Programa de Alimentação do Trabalhador (PAT), instituído pela Lei nº6.321/1976, com as atualizações previstas na Lei nº 14.442, de 2 de setembro de 2022, e demais legislação aplicável;
Gestão de Vales-Cultura: Controle de recargas mensais com registro detalhado, em conformidade com a Lei nº 12.761/2012 e demais normas vigentes;
Sistema de Gerenciamento: Plataforma informatizada acessível via web e aplicativo móvel (disponível para Android e iOS), com relatórios gerenciais, dashboards, e controle em tempo real, incluindo identificação de gastos por funcionário, estabelecimento, tipo de benefício, valor, data e hora de utilização, e saldo acumulado. Os cartões deverão possuir chip de segurança, modalidade de pagamento por aproximação (NFC), senha individualizada e intransferível, validade mínima de 5 anos, e função de múltiplos benefícios em um único cartão. Os créditos não terão prazo de validade e serão cumulativos. A emissão inicial e reposições (por extravio, dano, perda, roubo ou furto) serão gratuitas, com bloqueio imediato e transferência de saldo em até 5 dias úteis.
A taxa de administração aplicável à execução do contrato é de 0,00% (zero por cento), conforme proposta comercial vencedora apresentada no âmbito do Pregão Eletrônico Nº90005/2025, incidente sobre o valor total dos serviços contratados, nos termos do Termo de Referência e do Edital, não havendo qualquer ônus financeiro ao CRF/SC a esse título.
83900969000146-2-000004/2026 | BIQ BENEFICIOS LTDA | R$ 1.879.427,04 | 08/02/2029 |
83900969000146-2-000005/2026 | DOCS CONSULTORIA DE RH LTDA | R$ 195,00 | 03/02/2027 |
Valor empenhado a TELEWER TELECOMUNICACOES LTDA, referente a instalação de 01 (um) sensor infravermelho ativo de 4 feixes, destinado à reposição de equipamento de segurança furtado da Sede do CRF/SC. JUSTIFICATIVA: A presente contratação direta, em caráter emergencial, é necessária para recompor o sistema de segurança patrimonial do prédio da sede do CRF/SC, localizado na Rua Crispim Mira, nº 421, Centro, Florianópolis/SC, em razão do furto consumado de um sensor de barreira infravermelho, conforme registrado em Boletim de Ocorrência lavrado pela autoridade policial competente, o qual segue anexo ao presente processo. O equipamento furtado integrava o sistema de segurança eletrônica do prédio da sede do CRF/SC, sendo responsável pela detecção de presença na área de acesso das garagens. O furto ocorreu por volta de 01h14min, conforme consignado no Boletim de Ocorrência, e a sua subtração comprometeu significativamente a segurança do patrimônio público, ampliando o risco de novas invasões e danos ao imóvel. Ressalta-se que, além do Boletim de Ocorrência, há imagens extraídas do sistema de videomonitoramento, as quais registram o momento da ação criminosa, corroborando os fatos relatados e evidenciando a necessidade imediata de reposição do equipamento subtraído. Diante da urgência na recomposição do sistema de segurança e da necessidade de estabelecimento das condições mínimas de proteção do patrimônio público, optou-se pela contratação direta da empresa Telewer Telecomunicações Ltda, especializada no fornecimento, instalação e manutenção de sistemas de segurança eletrônica, com base em orçamento compatível com os preços praticados no mercado. 83900969000146-2-000003/2026 | TELEWER TELECOMUNICACOES LTDA | R$ 200,00 | 01/02/2027 |
Valor empenhado a TELEWER TELECOMUNICACOES LTDA, referente a aquisição de 01 (um) sensor infravermelho ativo de 4 feixes, destinado à reposição de equipamento de segurança furtado da Sede do CRF/SC. JUSTIFICATIVA: A presente contratação direta, em caráter emergencial, é necessária para recompor o sistema de segurança patrimonial do prédio da sede do CRF/SC, localizado na Rua Crispim Mira, nº 421, Centro, Florianópolis/SC, em razão do furto consumado de um sensor de barreira infravermelho, conforme registrado em Boletim de Ocorrência lavrado pela autoridade policial competente, o qual segue anexo ao presente processo. O equipamento furtado integrava o sistema de segurança eletrônica do prédio da sede do CRF/SC, sendo responsável pela detecção de presença na área de acesso das garagens. O furto ocorreu por volta de 01h14min, conforme consignado no Boletim de Ocorrência, e a sua subtração comprometeu significativamente a segurança do patrimônio público, ampliando o risco de novas invasões e danos ao imóvel. Diante da urgência na recomposição do sistema de segurança e da necessidade de restabelecimento das condições mínimas de proteção do patrimônio público, optou-se pela contratação direta da empresa Telewer Telecomunicações Ltda, especializada no fornecimento, instalação e manutenção de sistemas de segurança eletrônica, com base em orçamento compatível com os preços praticados no mercado. 83900969000146-2-000002/2026 | TELEWER TELECOMUNICACOES LTDA | R$ 565,00 | 01/02/2027 |
83900969000146-2-000024/2026 | EMPRESA BRASILEIRA DE CORREIOS E TELEGRAFOS | R$ 250.000,00 | 18/01/2027 |
83900969000146-2-000001/2026 | DOCS CONSULTORIA DE RH LTDA | R$ 195,00 | 08/01/2027 |
83900969000146-2-000050/2025 | TELEWER TELECOMUNICACOES LTDA | R$ 600,00 | 19/12/2026 |
83900969000146-2-000051/2025 | TELEWER TELECOMUNICACOES LTDA | R$ 833,50 | 19/12/2026 |
83900969000146-2-000049/2025 | DEIVID PESSOA SERRALHERIA | R$ 5.450,00 | 19/12/2026 |
83900969000146-2-000058/2025 | LD ELETRONICOS LTDA | R$ 6.870,00 | 15/12/2026 |